sat.trackr.live / text

‹ back to catalog

STARLINK-31762

NORAD 59614 · 2024-080P

PAYLOAD ACTIVE UNKNOWN

§ Identity

Operator
Country
US
Launch date
2024-04-28
Launch site
AFETR
Launch vehicle
Mass (kg)
RCS (m²)

Purposes: comms

External: N2YO · Heavens-Above · Gunter

§ Orbital elements

Epoch: 2026-05-24T22:43:18.187392Z

Period
94.27 min
Inclination
43.0022°
Eccentricity
0.0001290
Mean motion
15.27585174 rev/d
Perigee alt
482.1 km
Apogee alt
483.9 km
Semi-major
6,861.2 km
B*
1.4318e-4
RAAN
327.3817°
Arg perigee
270.7537°
Mean anomaly
89.3167°
Rev number
11,619

§ Raw data

STARLINK-317621 59614U 24080P   26144.94673828  .00003681  00000+0  14318-3 0  99902 59614  43.0022 327.3817 0001290 270.7537  89.3167 15.27585174116199

JSON: /api/v1/satellites/59614 · /tle

For live sub-satellite position, see the globe view (requires WebGL).

§ Visibility from observer

Set your observer location to see the next 7 days of passes ≥ 10°. The values pass through the URL so the page stays shareable.

No JS? Fill the form by hand. The geolocation button needs JavaScript.